• Processing (Info)

  • MPEC 2010-J24 : 2010 JJ1

    The following Minor Planet Electronic Circular may be linked-to from your own Web pages, but must not otherwise be redistributed electronically.

    A form allowing access to any MPEC is at the bottom of this page.


    Read MPEC 2010-J23 Read MPEC 2010-J25


    M.P.E.C. 2010-J24                                Issued 2010 May 6, 16:05 UT
    
         The Minor Planet Electronic Circulars contain information on unusual
             minor planets and routine data on comets.  They are published
       on behalf of Commission 20 of the International Astronomical Union by the
              Minor Planet Center, Smithsonian Astrophysical Observatory,
                              Cambridge, MA 02138, U.S.A.
    
                 Prepared using the Tamkin Foundation Computer Network
    
                                  MPC@CFA.HARVARD.EDU
           URL https://www.minorplanetcenter.org/iau/mpc.html  ISSN 1523-6714
    
                                       2010 JJ1
    
    Observations:
         K10J01J* C2010 05 05.16097 12 06 28.51 -13 06 03.6          19.9 V EJ024G96
         K10J01J  C2010 05 05.16627 12 06 33.30 -13 06 33.4          20.2 V EJ024G96
         K10J01J  C2010 05 05.17168 12 06 38.26 -13 07 04.5          20.2 V EJ024G96
         K10J01J  C2010 05 05.17705 12 06 43.16 -13 07 35.3          20.1 V EJ024G96
         K10J01J  C2010 05 05.20815 12 07 11.56 -13 10 31.3          20.0 V EJ024G96
         K10J01J  C2010 05 05.21115 12 07 14.34 -13 10 48.3          19.5 V EJ024G96
         K10J01J  C2010 05 05.21411 12 07 17.07 -13 11 05.0          20.0 V EJ024G96
         K10J01J  C2010 05 05.21712 12 07 19.81 -13 11 22.0          19.9 V EJ024G96
         K10J01J  C2010 05 05.23433012 07 32.16 -13 13 08.9          20.2 V EJ024H21
         K10J01J  C2010 05 05.23996312 07 37.42 -13 13 39.4          20.4 V EJ024H21
         K10J01J  C2010 05 05.26575 12 08 04.83 -13 15 53.2          20.2 R EJ024854
         K10J01J  C2010 05 05.27176 12 08 10.34 -13 16 27.6          20.2 R EJ024854
         K10J01J  C2010 05 05.27205 12 08 10.57 -13 16 30.2          20.1 V EJ024G96
         K10J01J  C2010 05 05.27503 12 08 13.34 -13 16 46.8          19.7 V EJ024G96
         K10J01J  C2010 05 05.28103 12 08 18.96 -13 17 20.3          19.7 V EJ024G96
         K10J01J  C2010 05 06.17780 12 24 11.30 -14 44 49.6          20.1 V EJ024G96
         K10J01J  C2010 05 06.17830 12 24 11.84 -14 44 52.7          19.7 V EJ024G96
         K10J01J  C2010 05 06.17877 12 24 12.34 -14 44 55.5          19.7 V EJ024G96
         K10J01J  C2010 05 06.17925 12 24 12.81 -14 44 58.7          20.2 V EJ024G96
    
    Observer details:
    854 Sabino Canyon Observatory, Tucson.  Observer J. E. McGaha.  0.36-m f/10.0
        Schmidt-Cassegrain + CCD.
    G96 Mt. Lemmon Survey.  Observer R. E. Hill.  Measurers J. D. Ahern,
        E. C. Beshore, A. Boattini, G. J. Garradd, A. R. Gibbs, A. D. Grauer,
        R. E. Hill, R. A. Kowalski, S. M. Larson, R. H. McNaught.  1.5-m reflector
        + CCD.
    H21 Astronomical Research Observatory, Westfield.  Observer R. Holmes.
        Measurer S. Foglia.
    
    Orbital elements:
    2010 JJ1                                                 Earth MOID = 0.0358 AU
    Epoch 2010 July 23.0 TT = JDT 2455400.5                 MPC
    M  20.73561              (2000.0)            P               Q
    n   0.26455484     Peri.  344.22330     -0.72540575     +0.68784901
    a   2.4032129      Node   239.26553     -0.62827080     -0.67679868
    e   0.5658349      Incl.    1.70002     -0.28118020     -0.26231143
    P   3.73           H   25.3           G   0.15           U   8
    Residuals in seconds of arc
    100505 G96  0.5+  0.2-    100505 G96  0.1-  0.2-    100505 G96  0.1-  0.4-
    100505 G96  0.2-  0.2+    100505 H21  0.3+  0.4-    100506 G96  0.1-  0.0
    100505 G96  0.2+  0.1-    100505 H21  0.2-  0.3+    100506 G96  0.2+  0.1-
    100505 G96  0.1+  0.4-    100505 854  1.6+  1.1+    100506 G96  0.4+  0.0
    100505 G96  0.5-  0.2-    100505 854  0.3+  0.3+    100506 G96  0.0   0.3-
    100505 G96  0.0   0.2-    100505 G96  0.3-  0.3-
    100505 G96  0.2+  0.2-    100505 G96  0.4-  0.3-
    
    Ephemeris:
    2010 JJ1                 a,e,i = 2.40, 0.57, 2                   q = 1.0434
    Date    TT    R. A. (2000) Decl.     Delta      r     Elong.  Phase     V
    2010 05 04    11 48.74   -11 19.0    0.0472   1.043   137.4    40.8    20.4
    2010 05 09    13 25.11   -19 28.0    0.0377   1.044   156.8    22.4    19.4
    2010 05 14    15 38.28   -24 35.0    0.0384   1.049   172.9     6.9    18.8
    2010 05 19    17 20.57   -23 26.2    0.0491   1.057   156.8    22.1    19.9
    2010 05 24    18 16.58   -20 54.6    0.0653   1.069   148.6    29.5    20.8
    2010 05 29    18 46.66   -18 58.3    0.0839   1.084   146.1    31.4    21.4
    2010 06 03    19 03.51   -17 41.1    0.104    1.103   146.7    30.3    21.9
    2010 06 08    19 13.02   -16 52.5    0.125    1.124   149.0    27.7    22.3
    2010 06 13    19 18.12   -16 23.9    0.147    1.148   152.4    24.2    22.6
    
    Sonia Keys                   (C) Copyright 2010 MPC           M.P.E.C. 2010-J24
    

    Read MPEC 2010-J23 Read MPEC 2010-J25


    MPEC number:

    Enter an MPEC number in one of the following forms:

    • 1997-B01 (the full form)
    • J97B01 (the packed version of the full form)
    • B01 (the abbreviated form)